Location: Newark
(14.1000°N, 87.2167°W)
Time: 00:11:37
(UTC+00:00)

Hubble Space Telescope - Pass Details

Date: 25 July 2019
Orbit: 536 x 540 km, 28.5° (Epoch: 23 August)

Event Time Altitude Azimuth Distance (km) Brightness Sun altitude
Exits shadow 09:01:24 17° 76° (ENE) 1,401 3.5 -33.1°
Drops below altitude 10° 09:02:24 10° 73° (ENE) 1,778 4.2 -32.9°
Sets 09:04:41 0° 69° (ENE) 2,668 5.4 -32.5°
